[[{"header":{"parameterUnit":"m.s-1","parameterCategory":2,"la1":30.2991,"la2":30.254,"lo1":-89.0895,"lo2":-89.0444,"dy":0.0017,"dx":0.0017,"nx":28,"ny":28,"refTime":"2024-05-15T03:00:00:Z","depth":"0","parameterNumber":2,"parameterNumberName":"U-component_of_CURRENTS"},"data":[0,0,0,0,0,0,0,0,0,0,0,0,0,0,0,0,0,0,0,0,0,0,0,0,0,0,0,0,0,0,0,0,0,0,0,0,0,0,0,0,0,0,0,0,0,0,0,0,0,0,0,0,0,0,0,0,0,0,0.2154,0.2155,0,0.2227,0.2227,0.2228,0.2229,0.2229,0.2228,0.2228,0.2195,0.2195,0.2194,0,0,0,0,0,0,0,0,0,0,0,0,0,0.1925,0.193,0.2154,0.2156,0.2157,0.2227,0.2227,0.2228,0.223,0.2229,0.2228,0.2228,0.2195,0.2195,0.2194,0,0,0,0,0,0,0,0,0,0,0,0,0,0.201,0.1931,0.2154,0.2169,0.2171,0.2227,0.2227,0.2228,0.223,0.2229,0.2228,0.2227,0.2195,0.2195,0.2194,0.2207,0,0,0.2193,0.2192,0,0,0,0,0,0,0,0,0.2006,0.2018,0.2166,0.2168,0.2171,0.2222,0.2135,0.2217,0.223,0.2203,0.2228,0.2227,0.2198,0.2197,0.2208,0.2205,0.2204,0.2193,0.2192,0.2192,0.2192,0,0,0,0,0,0,0,0.2,0.2015,0.2179,0.2167,0.217,0.2141,0.2153,0.215,0.2199,0.2205,0.2207,0.2222,0.2198,0.2209,0.2207,0.2203,0.2193,0.2192,0.2192,0.2191,0.2222,0.2223,0,0,0,0,0,0,0.2006,0.201,0.2177,0.2181,0.2089,0.2146,0.2159,0.2203,0.2201,0.2202,0.2222,0.2222,0.221,0.2208,0.2206,0.2231,0.2192,0.2191,0.2191,0.2221,0.2223,0.2224,0,0,0,0,0,0,0.2001,0.2021,0.2174,0.2098,0.2116,0.2152,0.2201,0.2205,0.2222,0.2216,0.2214,0.2236,0.2209,0.2206,0.2215,0.2229,0.2191,0.2191,0.222,0.2222,0.2223,0.2275,0,0,0,0,0,0,0.1995,0.202,0.2046,0.21,0.2121,0.2215,0.2202,0.2207,0.2234,0.2234,0.2227,0.2223,0.2208,0.2216,0.2215,0.2228,0.219,0.2218,0.2221,0.2223,0.2272,0.2278,0.2284,0,0,0,0,0,0.1987,0.2029,0.2047,0.2067,0.216,0.2217,0.2224,0.2242,0.2235,0.2252,0.2247,0.2223,0.2229,0.2217,0.2215,0.2228,0.2217,0.222,0.2222,0.2269,0.2277,0.2284,0,0,0,0,0,0,0.1937,0.2036,0.2056,0.2126,0.2171,0.2218,0.2236,0.225,0.2262,0.2255,0.224,0.2237,0.2252,0.2236,0.2224,0.2245,0.2218,0.2221,0.2255,0.2262,0.2268,0.2287,0.219,0,0,0,0,0,0.1943,0.2008,0.2079,0.2134,0.2157,0.2197,0.2219,0.2238,0.2261,0.2266,0.2264,0.2259,0.2262,0.2258,0.226,0.227,0.2282,0.2277,0.2283,0.2288,0.2303,0.2337,0.2348,0.2232,0.2232,0.2232,0,0,0.1936,0.2002,0.2035,0.2128,0.2161,0.22,0.2208,0.2252,0.2279,0.2258,0.2283,0.2283,0.2272,0.2288,0.2292,0.2274,0.233,0.2291,0.2295,0.2309,0.2341,0.2352,0.2362,0.2234,0.2234,0.2234,0,0,0.1954,0.2016,0.207,0.2111,0.2178,0.2206,0.2222,0.2276,0.2292,0.2323,0.2316,0.2332,0.233,0.2336,0.2334,0.2375,0.2366,0.2367,0.2406,0.2438,0.2448,0.2457,0.25,0.2513,0.2363,0.2363,0.2363,0,0.1934,0.2024,0.2086,0.2138,0.2171,0.2209,0.2249,0.2277,0.2325,0.2348,0.2334,0.2366,0.2357,0.2384,0.2401,0.2389,0.2409,0.2377,0.2447,0.2456,0.2464,0.2506,0.2519,0.2366,0.2366,0.2365,0.2365,0,0.1993,0.2049,0.208,0.2165,0.2205,0.2247,0.2298,0.2335,0.2355,0.2383,0.2424,0.2425,0.2445,0.2443,0.2434,0.2486,0.2484,0.2455,0.2429,0.2479,0.252,0.2532,0.237,0.2369,0.2368,0.2367,0,0,0.1976,0.2097,0.2105,0.2142,0.2223,0.2263,0.2316,0.2382,0.2419,0.2451,0.2506,0.2516,0.2525,0.2526,0.2518,0.2545,0.2624,0.2529,0.253,0.2575,0.2711,0.2671,0.268,0.2605,0.2607,0.2609,0.2721,0,0.1994,0.2092,0.2148,0.2211,0.2257,0.2311,0.2355,0.2416,0.246,0.2521,0.2543,0.2578,0.2551,0.2565,0.2593,0.2622,0.2657,0.2597,0.2655,0.2658,0.2616,0.2693,0.2551,0.2635,0.2734,0.2736,0.2737,0,0.2028,0.2092,0.2167,0.225,0.2272,0.2305,0.2395,0.2441,0.253,0.2567,0.2616,0.264,0.2702,0.2662,0.274,0.2703,0.272,0.2733,0.2737,0.2691,0.264,0.2599,0.2654,0.2591,0.2756,0.2755,0.2753,0,0.2001,0.2098,0.216,0.2189,0.2287,0.2321,0.2365,0.2451,0.2494,0.26,0.2644,0.2714,0.2747,0.2792,0.2821,0.2793,0.2906,0.2863,0.2844,0.2842,0.2729,0.2712,0.2729,0.2923,0.2923,0.2922,0.2922,0,0.2011,0.2049,0.2147,0.2179,0.2226,0.2302,0.2355,0.2419,0.2508,0.2562,0.2653,0.2702,0.2779,0.2846,0.287,0.2906,0.2943,0.2882,0.2875,0.2743,0.2728,0.2672,0.2638,0.2927,0.2926,0.2925,0.2924,0,0.1975,0.2045,0.2103,0.2196,0.2217,0.2248,0.2325,0.2368,0.2461,0.2543,0.258,0.2709,0.2809,0.2883,0.2968,0.2952,0.291,0.2993,0.2844,0.2817,0.2727,0.2701,0.2593,0.2532,0.301,0.301,0.301,0,0.1967,0.2002,0.209,0.2111,0.2145,0.2196,0.2229,0.2325,0.2375,0.253,0.2569,0.2705,0.2782,0.2914,0.2928,0.2993,0.2901,0.2887,0.2801,0.2732,0.2699,0.2557,0.2504,0.2683,0.268,0.2678,0.2676,0,0.1933,0.1966,0.2017,0.2058,0.2089,0.2128,0.2186,0.2219,0.2343,0.2409,0.2509,0.2589,0.2733,0.2745,0.2839,0.2848,0.273,0.2841,0.2799,0.2483,0.2298,0.2232,0.2616,0.2655,0.2657,0.2659,0.266,0.2661,0.1886,0.1903,0.1965,0.1997,0.2027,0.2054,0.2057,0.2128,0.218,0.2262,0.2389,0.2442,0.2544,0.2656,0.2663,0.2596,0.2587,0.2516,0.2508,0.2386,0.226,0.2614,0.2618,0.2619,0.2621,0.2622,0.2624,0,0.1823,0.1862,0.1896,0.193,0.1929,0.1971,0.202,0.2006,0.2024,0.2105,0.2163,0.2229,0.2259,0.2341,0.2345,0.2267,0.2143,0.2223,0.1993,0.1976,0.2325,0.2244,0.2127,0.2127,0.2127,0.2127,0.2127,0.2127,0.1793,0.1811,0.1841,0.1824,0.1836,0.1805,0.1811,0.1795,0.1818,0.1818,0.1832,0.1906,0.205,0.2091,0.2041,0.1999,0.1864,0.1744,0.1798,0.2051,0.2077,0.2101,0.2019,0.1856,0.1856,0.1324,0.132,0.1317]},{"header":{"parameterUnit":"m.s-1","parameterCategory":2,"la1":30.2991,"la2":30.254,"lo1":-89.0895,"lo2":-89.0444,"dy":0.0017,"dx":0.0017,"nx":28,"ny":28,"refTime":"2024-05-15T03:00:00:Z","depth":"0","parameterNumber":3,"parameterNumberName":"V-component_of_CURRENTS"},"data":[0,0,0,0,0,0,0,0,0,0,0,0,0,0,0,0,0,0,0,0,0,0,0,0,0,0,0,0,0,0,0,0,0,0,0,0,0,0,0,0,0,0,0,0,0,0,0,0,0,0,0,0,0,0,0,0,0,0,0.0297,0.0296,0,0.0232,0.0231,0.023,0.0184,0.0184,0.0184,0.0184,0.014,0.0139,0.0137,0,0,0,0,0,0,0,0,0,0,0,0,0,0.0306,0.0307,0.0297,0.0296,0.0296,0.0232,0.0231,0.023,0.0184,0.0184,0.0184,0.0184,0.014,0.0139,0.0137,0,0,0,0,0,0,0,0,0,0,0,0,0,0.0275,0.0307,0.0297,0.0268,0.0265,0.0232,0.0231,0.0229,0.0184,0.0184,0.0184,0.0184,0.0141,0.0139,0.0137,0.0128,0,0,0.0132,0.0131,0,0,0,0,0,0,0,0,0.0277,0.0274,0.0273,0.027,0.0267,0.0219,0.0218,0.0198,0.0184,0.0211,0.0184,0.0184,0.0171,0.0166,0.0149,0.0126,0.0124,0.0132,0.0131,0.013,0.013,0,0,0,0,0,0,0,0.0279,0.0276,0.0267,0.0272,0.0269,0.0233,0.0229,0.0213,0.019,0.0209,0.0206,0.0205,0.0169,0.0151,0.0148,0.0123,0.0132,0.013,0.0129,0.0129,0.0083,0.0083,0,0,0,0,0,0,0.0298,0.0279,0.027,0.0266,0.0276,0.0233,0.0228,0.0232,0.0189,0.0183,0.0205,0.0203,0.0154,0.015,0.0146,0.0149,0.013,0.0128,0.0127,0.0084,0.0083,0.0083,0,0,0,0,0,0,0.0299,0.0298,0.0272,0.0273,0.0268,0.0234,0.0237,0.023,0.0217,0.0187,0.0181,0.02,0.0153,0.0149,0.0133,0.0147,0.0128,0.0126,0.0084,0.0083,0.0083,0.0145,0,0,0,0,0,0,0.0299,0.0299,0.0305,0.0275,0.0269,0.0262,0.0238,0.0229,0.0218,0.0215,0.0181,0.0176,0.0153,0.0136,0.0132,0.0144,0.0125,0.0084,0.0084,0.0083,0.0143,0.0147,0.015,0,0,0,0,0,0.03,0.0314,0.0306,0.0304,0.0279,0.0263,0.0256,0.0229,0.0218,0.0216,0.0189,0.0177,0.0131,0.0135,0.0129,0.0142,0.0084,0.0084,0.0083,0.0142,0.0146,0.015,0,0,0,0,0,0,0.0317,0.031,0.03,0.031,0.0292,0.0257,0.0255,0.0235,0.021,0.021,0.0176,0.017,0.016,0.0139,0.0144,0.0125,0.0105,0.0104,0.0151,0.0155,0.0159,0.0189,0.0123,0,0,0,0,0,0.0326,0.0337,0.0317,0.0323,0.032,0.0288,0.0278,0.0261,0.0237,0.0225,0.02,0.0173,0.0153,0.0146,0.0122,0.0116,0.0109,0.0118,0.0121,0.0125,0.0144,0.0142,0.0148,0.0082,0.0082,0.0082,0,0,0.0333,0.0332,0.0336,0.0328,0.0313,0.0311,0.0281,0.0274,0.0271,0.0226,0.0215,0.0186,0.0152,0.0142,0.0136,0.0128,0.0136,0.0124,0.0127,0.0145,0.0143,0.0149,0.0155,0.0082,0.0082,0.0082,0,0,0.0358,0.0354,0.0373,0.0363,0.0352,0.0332,0.0335,0.0305,0.0293,0.0275,0.0244,0.0227,0.0189,0.0173,0.016,0.0169,0.0153,0.0155,0.0202,0.02,0.0207,0.0212,0.0206,0.021,0.0159,0.0159,0.0159,0,0.0365,0.0386,0.0373,0.0385,0.0384,0.0347,0.036,0.034,0.0306,0.0307,0.0281,0.0238,0.0207,0.0208,0.0206,0.0181,0.0174,0.0193,0.0208,0.0213,0.0218,0.021,0.0214,0.0162,0.0162,0.0161,0.0161,0,0.0402,0.0415,0.0425,0.0431,0.0427,0.043,0.0409,0.0402,0.0379,0.0358,0.035,0.0304,0.0282,0.0266,0.0237,0.0254,0.0237,0.0214,0.0206,0.0229,0.0218,0.0222,0.0166,0.0165,0.0164,0.0164,0,0,0.042,0.0447,0.0449,0.0467,0.0453,0.0458,0.046,0.0457,0.0471,0.0429,0.0449,0.0399,0.0375,0.0358,0.0322,0.0321,0.0336,0.0286,0.0285,0.0296,0.0333,0.0303,0.0303,0.0317,0.0318,0.0319,0.0311,0,0.0448,0.0496,0.0494,0.0526,0.0547,0.0525,0.0534,0.0527,0.051,0.0515,0.0479,0.0474,0.0409,0.0407,0.0392,0.0354,0.0348,0.034,0.0296,0.0295,0.0279,0.0308,0.0321,0.0314,0.0314,0.0315,0.0315,0,0.0481,0.0511,0.0561,0.0593,0.0601,0.0612,0.0635,0.0638,0.0633,0.0623,0.0608,0.0573,0.056,0.0504,0.0455,0.0453,0.0401,0.0368,0.0366,0.0325,0.0272,0.029,0.032,0.0253,0.032,0.0319,0.0319,0,0.0515,0.0554,0.0603,0.061,0.0638,0.0662,0.0673,0.0676,0.0698,0.0701,0.072,0.0677,0.0672,0.0607,0.051,0.0491,0.0463,0.0422,0.0347,0.0343,0.0341,0.0336,0.0318,0.0398,0.0398,0.0398,0.0398,0,0.0547,0.058,0.0628,0.0653,0.071,0.0714,0.0769,0.077,0.0795,0.084,0.0782,0.0812,0.07,0.0657,0.0559,0.0465,0.0492,0.0372,0.0347,0.036,0.0356,0.0285,0.0232,0.0398,0.0398,0.0398,0.0398,0,0.0572,0.0602,0.0658,0.071,0.0731,0.0773,0.0832,0.087,0.0886,0.0949,0.096,0.0925,0.0871,0.0748,0.0649,0.0535,0.0404,0.0403,0.042,0.0398,0.0255,0.0204,0.0174,0.0129,0.0328,0.0327,0.0326,0,0.0588,0.0625,0.0704,0.0742,0.0768,0.0832,0.0877,0.0911,0.0959,0.1025,0.1065,0.1035,0.1027,0.0859,0.0662,0.0493,0.0403,0.0378,0.0338,0.0266,0.0192,0.0176,0.0139,0.0356,0.0355,0.0355,0.0355,0,0.0614,0.0647,0.0697,0.0783,0.0843,0.0916,0.0988,0.1046,0.1103,0.1167,0.1244,0.1254,0.1092,0.0936,0.0684,0.0547,0.0335,0.0367,0.0299,0.0224,0.0203,0.0142,0.0334,0.0353,0.0353,0.0353,0.0353,0.0353,0.0628,0.0671,0.0746,0.0821,0.0894,0.0994,0.1072,0.1158,0.1265,0.1376,0.137,0.1406,0.1192,0.0858,0.0652,0.0319,0.0319,0.023,0.0179,0.0173,0.0123,0.0305,0.0287,0.0287,0.0287,0.0287,0.0287,0,0.0644,0.0701,0.0777,0.0881,0.0965,0.1005,0.1141,0.1231,0.1374,0.1467,0.1535,0.1473,0.1176,0.0863,0.0427,0.0193,0.0108,0.0072,0.0063,0.0033,0.0209,0.0202,0.0159,0.0159,0.0159,0.0159,0.0159,0.0159,0.0656,0.0733,0.078,0.0921,0.0998,0.1134,0.1223,0.1356,0.1458,0.1608,0.1656,0.1678,0.1503,0.0742,0.0229,0.0074,-0.0084,-0.0111,-0.0189,-0.0064,-0.0053,-0.0042,-0.0059,-0.0156,-0.0157,-0.0318,-0.032,-0.0321]}],[{"header":{"parameterUnit":"m.s-1","parameterCategory":2,"la1":30.2991,"la2":30.254,"lo1":-89.0895,"lo2":-89.0444,"dy":0.0017,"dx":0.0017,"nx":28,"ny":28,"refTime":"2024-05-15T03:00:00:Z","depth":"2","parameterNumber":2,"parameterNumberName":"U-component_of_CURRENTS"},"data":[0,0,0,0,0,0,0,0,0,0,0,0,0,0,0,0,0,0,0,0,0,0,0,0,0,0,0,0,0,0,0,0,0,0,0,0,0,0,0,0,0,0,0,0,0,0,0,0,0,0,0,0,0,0,0,0,0,0,0.1916,0.1917,0,0.1965,0.1965,0.1965,0.1959,0.196,0.196,0.196,0.2,0.2,0.2001,0,0,0,0,0,0,0,0,0,0,0,0,0,0.1695,0.1699,0.1915,0.1917,0.1919,0.1965,0.1965,0.1964,0.1959,0.196,0.196,0.196,0.1999,0.2,0.2001,0,0,0,0,0,0,0,0,0,0,0,0,0,0.1762,0.17,0.1915,0.193,0.1933,0.1965,0.1965,0.1964,0.1959,0.196,0.196,0.196,0.1999,0.2,0.2001,0.2,0,0,0.2005,0.2005,0,0,0,0,0,0,0,0,0.1758,0.1768,0.1926,0.193,0.1933,0.1967,0.1902,0.198,0.1959,0.1937,0.196,0.1961,0.1995,0.1997,0.1988,0.2002,0.2003,0.2005,0.2006,0.2006,0.2007,0,0,0,0,0,0,0,0.1754,0.1766,0.1923,0.1929,0.1933,0.1895,0.1904,0.1915,0.1954,0.1939,0.1942,0.1966,0.1995,0.1987,0.1989,0.2004,0.2005,0.2006,0.2007,0.2007,0.2074,0.2075,0,0,0,0,0,0,0.1778,0.1762,0.1922,0.1926,0.1858,0.19,0.191,0.1946,0.1954,0.1959,0.1965,0.1966,0.1985,0.1988,0.1991,0.2047,0.2006,0.2007,0.2008,0.2073,0.2075,0.2076,0,0,0,0,0,0,0.1773,0.1792,0.192,0.1853,0.1868,0.1905,0.1944,0.1947,0.1969,0.1976,0.1979,0.199,0.1985,0.1989,0.2027,0.2047,0.2008,0.2009,0.2072,0.2074,0.2075,0.2123,0,0,0,0,0,0,0.1766,0.179,0.1826,0.1856,0.1874,0.1967,0.1945,0.1948,0.1987,0.1988,0.1998,0.2,0.1986,0.2025,0.2028,0.2048,0.201,0.2071,0.2073,0.2075,0.212,0.2126,0.2131,0,0,0,0,0,0.1758,0.1815,0.1828,0.1848,0.1922,0.197,0.1974,0.1991,0.1989,0.2008,0.2013,0.2001,0.204,0.2028,0.203,0.2051,0.207,0.2072,0.2074,0.2118,0.2125,0.2131,0,0,0,0,0,0,0.1729,0.1822,0.1836,0.1916,0.1952,0.1974,0.2002,0.2011,0.2026,0.2028,0.202,0.2024,0.2065,0.2054,0.2041,0.2076,0.2051,0.2054,0.2083,0.2089,0.2095,0.2112,0.2011,0,0,0,0,0,0.1744,0.1818,0.1875,0.1937,0.196,0.1981,0.2005,0.2018,0.2039,0.2046,0.2052,0.2057,0.2071,0.208,0.209,0.2112,0.2117,0.2125,0.213,0.2135,0.2151,0.2177,0.2186,0.2084,0.2084,0.2084,0,0,0.1739,0.1812,0.1845,0.1937,0.1959,0.1989,0.1994,0.2042,0.2062,0.2049,0.2077,0.2087,0.2085,0.2109,0.2125,0.2105,0.2168,0.2138,0.2142,0.2156,0.218,0.219,0.2199,0.2085,0.2085,0.2085,0,0,0.1769,0.1839,0.1899,0.1935,0.2005,0.2019,0.2043,0.2078,0.2094,0.213,0.2122,0.2152,0.2166,0.2167,0.2168,0.2214,0.2205,0.2213,0.2247,0.2271,0.228,0.2288,0.231,0.2319,0.2205,0.2205,0.2205,0,0.1758,0.185,0.1916,0.1971,0.2003,0.2035,0.207,0.2088,0.2129,0.2153,0.215,0.2191,0.2193,0.2222,0.2234,0.2229,0.2239,0.2219,0.2279,0.2287,0.2294,0.2314,0.2324,0.2208,0.2208,0.2207,0.2207,0,0.1824,0.1883,0.1919,0.2,0.2038,0.208,0.2118,0.2155,0.218,0.2196,0.2253,0.2257,0.2284,0.2283,0.2274,0.2322,0.2313,0.2291,0.2262,0.2307,0.2326,0.2335,0.2212,0.2211,0.221,0.2209,0,0,0.1809,0.1941,0.1946,0.1981,0.206,0.2093,0.2143,0.22,0.2239,0.2272,0.2326,0.2347,0.2361,0.2365,0.2358,0.2374,0.2433,0.2357,0.2357,0.238,0.2492,0.2415,0.2417,0.242,0.2422,0.2424,0.2485,0,0.1827,0.1934,0.1994,0.2047,0.2089,0.2139,0.2184,0.2237,0.2282,0.2338,0.2365,0.2407,0.2385,0.2408,0.2425,0.244,0.246,0.2419,0.2444,0.2445,0.2372,0.2426,0.223,0.2261,0.2493,0.2495,0.2496,0,0.1853,0.193,0.2006,0.209,0.2112,0.2143,0.2231,0.2275,0.2357,0.2398,0.2449,0.2475,0.2525,0.2494,0.2543,0.2519,0.2518,0.2517,0.2519,0.2439,0.2386,0.2254,0.2269,0.2511,0.251,0.2509,0.2508,0,0.1823,0.192,0.199,0.2017,0.2121,0.2161,0.2208,0.2292,0.2337,0.2438,0.2485,0.2545,0.2581,0.2602,0.262,0.2587,0.2672,0.2618,0.2547,0.2542,0.2376,0.2352,0.2655,0.2655,0.2655,0.2655,0.2655,0,0.1838,0.1872,0.1978,0.2017,0.2072,0.2148,0.2211,0.2277,0.2368,0.2417,0.2505,0.2546,0.2611,0.2664,0.2663,0.2649,0.2708,0.2575,0.2558,0.2386,0.2364,0.2577,0.2567,0.2657,0.2657,0.2656,0.2656,0,0.1801,0.1878,0.1936,0.2041,0.2066,0.2102,0.2192,0.2239,0.2338,0.2411,0.2449,0.2563,0.2623,0.2687,0.2733,0.2687,0.2693,0.2671,0.247,0.2428,0.2532,0.2524,0.2582,0.258,0.2579,0.2577,0.2576,0,0.1795,0.1834,0.193,0.1953,0.1999,0.2058,0.2101,0.2207,0.2256,0.2394,0.2424,0.2532,0.2553,0.2621,0.2598,0.2602,0.2671,0.2417,0.2305,0.255,0.2528,0.2522,0.2517,0.2109,0.2104,0.21,0.2097,0,0.1763,0.1801,0.1864,0.1913,0.1952,0.1993,0.2061,0.2091,0.2215,0.2264,0.2322,0.2351,0.242,0.2332,0.2375,0.2342,0.2401,0.233,0.2659,0.2152,0.2106,0.2084,0.2094,0.2061,0.2065,0.2067,0.2069,0.2071,0.1703,0.1739,0.1817,0.1852,0.1892,0.1916,0.1916,0.1969,0.2002,0.2042,0.2141,0.2108,0.215,0.207,0.2033,0.2024,0.2159,0.2068,0.208,0.2096,0.2024,0.1977,0.1895,0.1897,0.1899,0.1901,0.1903,0,0.1624,0.1693,0.1742,0.1783,0.1777,0.1834,0.1876,0.183,0.1796,0.1848,0.1843,0.1699,0.1647,0.1717,0.1627,0.1624,0.1595,0.1579,0.1532,0.1569,0.1602,0.1504,0.1238,0.1235,0.1233,0.1231,0,0,0.159,0.1616,0.1667,0.1647,0.1669,0.1634,0.163,0.1558,0.1553,0.1471,0.1443,0.1532,0.1625,0.1392,0.1383,0.1297,0.1414,0.1244,0.178,0.176,0.179,0.1891,0.1783,0,0,0,0,0]},{"header":{"parameterUnit":"m.s-1","parameterCategory":2,"la1":30.2991,"la2":30.254,"lo1":-89.0895,"lo2":-89.0444,"dy":0.0017,"dx":0.0017,"nx":28,"ny":28,"refTime":"2024-05-15T03:00:00:Z","depth":"2","parameterNumber":3,"parameterNumberName":"V-component_of_CURRENTS"},"data":[0,0,0,0,0,0,0,0,0,0,0,0,0,0,0,0,0,0,0,0,0,0,0,0,0,0,0,0,0,0,0,0,0,0,0,0,0,0,0,0,0,0,0,0,0,0,0,0,0,0,0,0,0,0,0,0,0,0,0.0063,0.0062,0,-0.0024,-0.0025,-0.0027,-0.0072,-0.0071,-0.007,-0.007,-0.0056,-0.0056,-0.0057,0,0,0,0,0,0,0,0,0,0,0,0,0,0.0127,0.0126,0.0063,0.0062,0.0062,-0.0024,-0.0026,-0.0027,-0.0072,-0.0071,-0.007,-0.007,-0.0056,-0.0056,-0.0057,0,0,0,0,0,0,0,0,0,0,0,0,0,0.007,0.0126,0.0063,0.0034,0.0031,-0.0023,-0.0026,-0.0028,-0.0072,-0.0071,-0.007,-0.0069,-0.0056,-0.0056,-0.0057,-0.0075,0,0,-0.0057,-0.0058,0,0,0,0,0,0,0,0,0.0073,0.0066,0.0039,0.0036,0.0033,-0.003,0.0002,-0.0036,-0.0072,-0.004,-0.007,-0.0069,-0.0034,-0.0037,-0.0066,-0.0075,-0.0074,-0.0057,-0.0058,-0.0058,-0.0058,0,0,0,0,0,0,0,0.0077,0.007,0.0022,0.0039,0.0035,0.0005,-0.0003,-0.0007,-0.0044,-0.0042,-0.0044,-0.0043,-0.0036,-0.0066,-0.0065,-0.0074,-0.0057,-0.0058,-0.0058,-0.0058,-0.0057,-0.0057,0,0,0,0,0,0,0.0103,0.0074,0.0025,0.002,0.0063,0.0004,-0.0005,-0.0016,-0.0046,-0.0049,-0.0044,-0.0045,-0.0066,-0.0065,-0.0065,-0.0034,-0.0058,-0.0058,-0.0058,-0.0057,-0.0057,-0.0057,0,0,0,0,0,0,0.0105,0.0099,0.0028,0.0051,0.0041,0.0003,-0.001,-0.0018,-0.0027,-0.0047,-0.0049,-0.0041,-0.0065,-0.0064,-0.0054,-0.0035,-0.0058,-0.0058,-0.0057,-0.0057,-0.0057,-0.0006,0,0,0,0,0,0,0.0107,0.01,0.0106,0.0052,0.0041,0.0016,-0.0011,-0.002,-0.0026,-0.0028,-0.0046,-0.0046,-0.0064,-0.0054,-0.0055,-0.0036,-0.0058,-0.0058,-0.0057,-0.0057,-0.0008,-0.0004,-0.0001,0,0,0,0,0,0.0109,0.0119,0.0106,0.0102,0.0048,0.0018,0.0008,-0.002,-0.0026,-0.0027,-0.0041,-0.0044,-0.0052,-0.0054,-0.0055,-0.0036,-0.0058,-0.0057,-0.0057,-0.001,-0.0005,-0.0001,0,0,0,0,0,0,0.0145,0.0114,0.01,0.0098,0.0071,0.0014,0.0015,-0.0007,-0.0025,-0.0017,-0.0041,-0.0042,-0.0027,-0.0041,-0.0042,-0.0037,-0.0056,-0.0055,-0.002,-0.0015,-0.0012,0.0011,-0.0059,0,0,0,0,0,0.0158,0.0159,0.012,0.0118,0.0111,0.0065,0.0053,0.0032,0.0008,0.0,-0.0015,-0.0027,-0.0033,-0.0029,-0.004,-0.0033,-0.0044,-0.0023,-0.0019,-0.0016,0.0001,-0.0007,-0.0002,-0.0056,-0.0056,-0.0056,0,0,0.0168,0.0156,0.0153,0.0128,0.0102,0.0088,0.0059,0.0049,0.0042,0.0009,0.0005,-0.001,-0.0029,-0.0027,-0.0021,-0.003,-0.001,-0.0016,-0.0012,0.0003,-0.0006,-0.0,0.0004,-0.0055,-0.0055,-0.0055,0,0,0.0192,0.0182,0.019,0.0174,0.0155,0.0123,0.0129,0.0085,0.0076,0.0067,0.0042,0.0043,0.0025,0.0013,0.0006,0.0025,0.0009,0.0021,0.0061,0.0054,0.0059,0.0063,0.0046,0.0049,0.0023,0.0023,0.0023,0,0.0207,0.021,0.0188,0.0191,0.0189,0.0145,0.015,0.0124,0.0089,0.0096,0.0081,0.0061,0.0044,0.0054,0.0053,0.0037,0.0025,0.0048,0.006,0.0064,0.0068,0.005,0.0052,0.0026,0.0026,0.0025,0.0025,0,0.0232,0.0237,0.0243,0.023,0.0222,0.0222,0.019,0.0186,0.0172,0.0149,0.0162,0.0129,0.0121,0.0111,0.0087,0.0104,0.0085,0.0066,0.0054,0.0076,0.0055,0.0057,0.0029,0.0029,0.0028,0.0027,0,0,0.0248,0.0261,0.026,0.0276,0.025,0.0247,0.0247,0.024,0.0259,0.0225,0.0252,0.0221,0.0207,0.0198,0.017,0.0161,0.0162,0.0128,0.0126,0.012,0.0141,0.0108,0.0106,0.0146,0.0146,0.0147,0.0113,0,0.0273,0.0307,0.0298,0.0318,0.0332,0.031,0.032,0.0312,0.0299,0.031,0.0288,0.0296,0.0238,0.0247,0.0225,0.0185,0.0169,0.0172,0.0113,0.0112,0.0087,0.0108,0.0127,0.0098,0.0114,0.0115,0.0115,0,0.0292,0.032,0.0359,0.0392,0.0397,0.0405,0.0431,0.0434,0.0433,0.0432,0.0424,0.0396,0.0382,0.0332,0.0269,0.0274,0.0215,0.0175,0.0172,0.0131,0.0082,0.0079,0.0099,0.0116,0.0116,0.0116,0.0116,0,0.0327,0.0356,0.0402,0.0409,0.0434,0.0464,0.0477,0.0482,0.0509,0.0515,0.054,0.0496,0.0498,0.0419,0.0321,0.0298,0.0255,0.0209,0.0123,0.0119,0.0119,0.0115,0.0171,0.0171,0.0171,0.0171,0.0171,0,0.036,0.039,0.0432,0.0459,0.0524,0.0525,0.059,0.0594,0.0624,0.0671,0.0613,0.0639,0.0523,0.0474,0.0364,0.0253,0.0282,0.0142,0.0115,0.0134,0.0132,0.0135,0.0132,0.017,0.017,0.017,0.0171,0,0.0386,0.0412,0.0465,0.052,0.0545,0.0593,0.0662,0.0706,0.0728,0.079,0.0803,0.0759,0.0685,0.056,0.044,0.0322,0.0215,0.0168,0.0194,0.0171,0.0066,0.0065,0.0057,0.0055,0.0054,0.0053,0.0053,0,0.0403,0.0438,0.0513,0.0554,0.0585,0.0659,0.0715,0.0756,0.0804,0.0863,0.09,0.0856,0.0815,0.0621,0.0426,0.0236,0.0213,0.0125,0.0076,0.0083,0.0057,0.0058,0.0059,0.0091,0.0091,0.0091,0.009,0,0.0434,0.0463,0.0513,0.0603,0.0671,0.0748,0.0832,0.0889,0.0949,0.1,0.1049,0.1025,0.0842,0.0652,0.0399,0.0262,0.0151,0.011,0.0135,0.0113,0.0111,0.0088,0.0088,0.0088,0.0088,0.0088,0.0088,0.0088,0.0448,0.0494,0.0566,0.0647,0.0729,0.0832,0.0909,0.0985,0.1077,0.1154,0.1136,0.1105,0.0901,0.0558,0.0345,0.012,0.0117,0.0029,0.0032,0.0035,0.004,0.0037,-0.0,-0.0001,-0.0001,-0.0001,-0.0001,0,0.0465,0.0527,0.0606,0.0712,0.0802,0.0848,0.0983,0.105,0.1157,0.1206,0.1228,0.1032,0.0816,0.0587,0.0258,0.0047,0.003,-0.0028,0.0013,0.0017,0.002,0.0027,-0.0019,-0.0019,-0.002,-0.002,0,0,0.0479,0.0555,0.0604,0.0752,0.0836,0.0973,0.1057,0.114,0.1203,0.1243,0.123,0.116,0.0893,0.0648,0.0373,0.0192,0.0145,0.0138,0.0175,0.026,0.0266,0.0075,0.0091,0,0,0,0,0]}],[{"header":{"parameterUnit":"m.s-1","parameterCategory":2,"la1":30.2991,"la2":30.254,"lo1":-89.0895,"lo2":-89.0444,"dy":0.0017,"dx":0.0017,"nx":28,"ny":28,"refTime":"2024-05-15T03:00:00:Z","depth":"4","parameterNumber":2,"parameterNumberName":"U-component_of_CURRENTS"},"data":[0,0,0,0,0,0,0,0,0,0,0,0,0,0,0,0,0,0,0,0,0,0,0,0,0,0,0,0,0,0,0,0,0,0,0,0,0,0,0,0,0,0,0,0,0,0,0,0,0,0,0,0,0,0,0,0,0,0,0.0338,0.0338,0,0.0387,0.0388,0.0389,0.0436,0.0436,0.0436,0.0437,0.0466,0.0466,0.0467,0,0,0,0,0,0,0,0,0,0,0,0,0,0.0642,0.0634,0.0338,0.0338,0.0339,0.0387,0.0388,0.0389,0.0436,0.0436,0.0437,0.0437,0.0466,0.0466,0.0467,0,0,0,0,0,0,0,0,0,0,0,0,0,0.0584,0.0632,0.0338,0.0366,0.0369,0.0387,0.0388,0.0389,0.0436,0.0436,0.0437,0.0437,0.0466,0.0466,0.0467,0.0459,0,0,0.0469,0.0469,0,0,0,0,0,0,0,0,0.0587,0.0572,0.0362,0.0364,0.0367,0.0404,0.0506,0.0411,0.0435,0.0413,0.0437,0.0438,0.0441,0.0444,0.0456,0.0461,0.0462,0.0469,0.0469,0.047,0.047,0,0,0,0,0,0,0,0.059,0.0573,0.036,0.0362,0.0366,0.0499,0.0488,0.049,0.0425,0.0415,0.0418,0.0419,0.0443,0.0455,0.0457,0.0463,0.0469,0.047,0.047,0.047,0.0498,0.0498,0,0,0,0,0,0,0.0558,0.0573,0.0358,0.0361,0.0478,0.0491,0.048,0.0394,0.0425,0.043,0.0419,0.0421,0.0454,0.0456,0.0458,0.0511,0.047,0.047,0.0471,0.0497,0.0498,0.0498,0,0,0,0,0,0,0.0562,0.0534,0.0356,0.0474,0.046,0.0482,0.0388,0.0394,0.0425,0.0428,0.0433,0.0445,0.0454,0.0457,0.0471,0.051,0.0471,0.0471,0.0497,0.0498,0.0498,0.0578,0,0,0,0,0,0,0.0569,0.0534,0.048,0.0467,0.0452,0.0376,0.0387,0.0395,0.0422,0.0427,0.0451,0.0454,0.0455,0.047,0.0472,0.051,0.0472,0.0497,0.0497,0.0498,0.0575,0.0582,0.0587,0,0,0,0,0,0.0579,0.0499,0.0474,0.0451,0.0365,0.0376,0.0382,0.0407,0.0423,0.0438,0.0451,0.0454,0.0475,0.0471,0.0472,0.0512,0.0496,0.0497,0.0498,0.0573,0.058,0.0587,0,0,0,0,0,0,0.0637,0.0495,0.0469,0.0356,0.037,0.0384,0.0404,0.0417,0.0441,0.0451,0.0456,0.0459,0.0489,0.0477,0.0472,0.0518,0.0487,0.0488,0.0543,0.0551,0.0556,0.0572,0.0472,0,0,0,0,0,0.0608,0.0491,0.0443,0.0371,0.0371,0.0392,0.0406,0.042,0.0434,0.0448,0.0461,0.0473,0.049,0.0502,0.0507,0.053,0.0543,0.0554,0.056,0.0565,0.0576,0.068,0.0698,0.0501,0.0501,0.0501,0,0,0.063,0.0529,0.0477,0.0376,0.0392,0.0395,0.0403,0.0427,0.0445,0.0444,0.048,0.0494,0.0497,0.0529,0.0541,0.0529,0.0611,0.0566,0.0571,0.058,0.0683,0.0703,0.0721,0.0501,0.0501,0.0501,0,0,0.0621,0.0514,0.0429,0.0428,0.0413,0.0422,0.0428,0.0444,0.0467,0.0494,0.0503,0.054,0.0555,0.0578,0.0588,0.0624,0.0638,0.0623,0.0676,0.0777,0.0795,0.0812,0.079,0.0804,0.063,0.063,0.063,0,0.0665,0.0515,0.044,0.0396,0.0409,0.0431,0.0434,0.0458,0.0483,0.0506,0.0513,0.0578,0.0584,0.0638,0.0657,0.0644,0.0667,0.0655,0.079,0.0807,0.0823,0.0797,0.0812,0.0634,0.0634,0.0633,0.0633,0,0.0583,0.052,0.0503,0.0414,0.0427,0.0443,0.0456,0.0486,0.052,0.0547,0.0614,0.0641,0.0688,0.0696,0.0694,0.0799,0.0762,0.079,0.0784,0.0849,0.0815,0.0829,0.064,0.0639,0.0637,0.0636,0,0,0.0573,0.0455,0.046,0.045,0.0439,0.0447,0.0483,0.0517,0.056,0.061,0.068,0.0728,0.0771,0.0784,0.0801,0.0884,0.0994,0.0894,0.0898,0.0889,0.1149,0.1055,0.106,0.1076,0.108,0.1084,0.1058,0,0.0564,0.0459,0.0414,0.0435,0.0424,0.0459,0.0493,0.0536,0.059,0.0663,0.0728,0.0806,0.0797,0.0855,0.0935,0.0976,0.1046,0.0993,0.1071,0.1071,0.0999,0.1081,0.1098,0.1068,0.1071,0.1074,0.1075,0,0.0508,0.0448,0.0406,0.0429,0.0433,0.0459,0.0529,0.0567,0.0665,0.0722,0.0818,0.0874,0.0971,0.0995,0.1104,0.1079,0.1131,0.1163,0.1164,0.1068,0.1008,0.1003,0.1101,0.1099,0.1097,0.1095,0.1094,0,0.0496,0.0472,0.0426,0.043,0.044,0.0471,0.0514,0.0593,0.0646,0.0791,0.0862,0.0966,0.1041,0.1142,0.1184,0.1181,0.1302,0.1301,0.1248,0.1235,0.129,0.1273,0.1439,0.1439,0.1439,0.1439,0.1439,0,0.0454,0.0457,0.0428,0.0407,0.0443,0.0474,0.0545,0.0606,0.0721,0.0795,0.0912,0.0993,0.1109,0.1174,0.1217,0.1242,0.1329,0.1266,0.1259,0.1307,0.1294,0.1295,0.1278,0.1438,0.1438,0.1438,0.1438,0,0.0425,0.0386,0.038,0.0397,0.042,0.0457,0.0559,0.0608,0.0732,0.0842,0.0907,0.1032,0.1111,0.1165,0.1289,0.1262,0.1316,0.1321,0.129,0.1278,0.1154,0.1142,0.1238,0.1235,0.1233,0.1231,0.123,0,0.0385,0.0352,0.0366,0.0373,0.0383,0.045,0.0491,0.0612,0.0664,0.0849,0.0886,0.102,0.109,0.1145,0.1216,0.1252,0.1276,0.1257,0.1282,0.1169,0.1152,0.1143,0.1134,0.1226,0.1225,0.1225,0.1224,0,0.0351,0.0346,0.0317,0.0325,0.0361,0.041,0.0481,0.052,0.066,0.0768,0.0895,0.0986,0.105,0.1108,0.1142,0.1183,0.1241,0.1233,0.1238,0.1262,0.1155,0.1138,0.1132,0.1216,0.1217,0.1218,0.1219,0,0.036,0.0324,0.0282,0.0293,0.033,0.0367,0.0411,0.0489,0.0574,0.0765,0.0795,0.0945,0.1039,0.1072,0.1109,0.1126,0.1127,0.111,0.1122,0.1132,0.1115,0.0964,0.0981,0,0,0,0,0,0.0389,0.0301,0.0266,0.0265,0.0295,0.034,0.0396,0.0442,0.0562,0.0636,0.0729,0.0809,0.0915,0.0976,0.0976,0.1028,0.1096,0.102,0.1073,0.1172,0.1181,0.1175,0,0,0,0,0,0,0.0383,0.0325,0.0244,0.0252,0.0264,0.0315,0.0363,0.0436,0.0478,0.0605,0.0659,0.0774,0.0861,0.0925,0.0974,0.0986,0.1005,0.1099,0.1097,0.1167,0.1175,0.1183,0.1179,0,0,0,0,0]},{"header":{"parameterUnit":"m.s-1","parameterCategory":2,"la1":30.2991,"la2":30.254,"lo1":-89.0895,"lo2":-89.0444,"dy":0.0017,"dx":0.0017,"nx":28,"ny":28,"refTime":"2024-05-15T03:00:00:Z","depth":"4","parameterNumber":3,"parameterNumberName":"V-component_of_CURRENTS"},"data":[0,0,0,0,0,0,0,0,0,0,0,0,0,0,0,0,0,0,0,0,0,0,0,0,0,0,0,0,0,0,0,0,0,0,0,0,0,0,0,0,0,0,0,0,0,0,0,0,0,0,0,0,0,0,0,0,0,0,0.0291,0.0291,0,0.0275,0.0275,0.0274,0.0282,0.0283,0.0283,0.0284,0.0296,0.0296,0.0295,0,0,0,0,0,0,0,0,0,0,0,0,0,0.0211,0.0214,0.0291,0.0291,0.0291,0.0275,0.0275,0.0274,0.0282,0.0283,0.0283,0.0284,0.0296,0.0296,0.0295,0,0,0,0,0,0,0,0,0,0,0,0,0,0.0226,0.0214,0.0291,0.0293,0.0293,0.0275,0.0275,0.0274,0.0282,0.0283,0.0283,0.0284,0.0296,0.0296,0.0295,0.0281,0,0,0.0295,0.0295,0,0,0,0,0,0,0,0,0.0225,0.0229,0.0293,0.0293,0.0293,0.0281,0.0251,0.0278,0.0282,0.0286,0.0284,0.0284,0.0293,0.0293,0.0288,0.0282,0.0283,0.0295,0.0295,0.0295,0.0295,0,0,0,0,0,0,0,0.0224,0.0229,0.0284,0.0292,0.0292,0.0254,0.0258,0.0255,0.0286,0.0286,0.0286,0.0285,0.0293,0.0288,0.0288,0.0283,0.0295,0.0295,0.0295,0.0295,0.0302,0.0303,0,0,0,0,0,0,0.0233,0.0229,0.0285,0.0284,0.026,0.0256,0.026,0.0284,0.0286,0.0286,0.0284,0.0285,0.0288,0.0289,0.0289,0.0278,0.0295,0.0295,0.0295,0.0302,0.0302,0.0303,0,0,0,0,0,0,0.0231,0.0239,0.0286,0.0254,0.0257,0.0257,0.0284,0.0284,0.0283,0.0284,0.0286,0.0285,0.0289,0.0289,0.0288,0.0278,0.0295,0.0295,0.0302,0.0302,0.0303,0.0252,0,0,0,0,0,0,0.023,0.0239,0.0256,0.0256,0.026,0.0276,0.0283,0.0283,0.0281,0.0282,0.0285,0.0287,0.0289,0.0288,0.0288,0.0278,0.0294,0.0301,0.0302,0.0302,0.0254,0.0251,0.0249,0,0,0,0,0,0.0227,0.0252,0.0258,0.0264,0.0286,0.0276,0.0274,0.0275,0.028,0.0277,0.028,0.0287,0.0292,0.0287,0.0287,0.0278,0.0301,0.0302,0.0302,0.0255,0.0251,0.0249,0,0,0,0,0,0,0.0219,0.0255,0.0261,0.0294,0.0285,0.0278,0.0277,0.0275,0.0273,0.0278,0.0281,0.0282,0.0283,0.029,0.0286,0.0286,0.0301,0.0302,0.0265,0.0262,0.026,0.0249,0.0294,0,0,0,0,0,0.0227,0.0259,0.0267,0.0287,0.0289,0.0282,0.0278,0.0276,0.0274,0.0274,0.0274,0.0281,0.0283,0.0281,0.0288,0.0277,0.0269,0.0277,0.0275,0.0272,0.0266,0.0232,0.0225,0.0305,0.0305,0.0305,0,0,0.0218,0.0249,0.026,0.0287,0.0284,0.0284,0.0282,0.0278,0.0277,0.0276,0.0277,0.0273,0.0282,0.0274,0.0275,0.0278,0.0248,0.0273,0.027,0.0265,0.0232,0.0224,0.0216,0.0305,0.0305,0.0305,0,0,0.0223,0.0255,0.0281,0.028,0.0286,0.0283,0.0283,0.0277,0.0277,0.0271,0.0273,0.0254,0.0267,0.0252,0.0252,0.0241,0.0241,0.0258,0.0224,0.0191,0.0183,0.0176,0.0158,0.015,0.0249,0.0249,0.0249,0,0.0213,0.0256,0.0276,0.0295,0.0294,0.0286,0.0289,0.0285,0.0275,0.0272,0.0274,0.0258,0.0253,0.023,0.0221,0.023,0.0222,0.0229,0.0184,0.0177,0.0171,0.0154,0.0146,0.0247,0.0247,0.0247,0.0247,0,0.0231,0.0259,0.0269,0.0302,0.0299,0.0297,0.0296,0.0291,0.0288,0.0279,0.0259,0.0235,0.0222,0.0215,0.0209,0.0166,0.0178,0.0186,0.0183,0.0159,0.0144,0.0136,0.0243,0.0244,0.0245,0.0245,0,0,0.0222,0.0275,0.0276,0.0293,0.0303,0.0303,0.0303,0.0297,0.0296,0.0271,0.0255,0.022,0.0195,0.0192,0.0171,0.0126,0.0061,0.013,0.0129,0.0097,-0.0002,0.0019,0.0013,0.0059,0.0057,0.0056,0.0005,0,0.0226,0.0269,0.0291,0.0304,0.0318,0.0316,0.0317,0.0309,0.0298,0.0281,0.0238,0.0221,0.0193,0.0173,0.012,0.0075,0.0039,0.0075,0.004,0.0039,0.0047,0.0003,0.0051,-0.0001,-0.0003,-0.0004,-0.0005,0,0.0233,0.0266,0.0292,0.0321,0.0326,0.0333,0.0331,0.0331,0.0307,0.0298,0.0254,0.0227,0.0146,0.0138,0.0028,0.0053,0.0024,-0.001,-0.0012,0.0018,0.0045,0.003,-0.0019,-0.0018,-0.0017,-0.0016,-0.0015,0,0.0224,0.0262,0.029,0.0296,0.0326,0.0336,0.0346,0.0335,0.0341,0.0303,0.0295,0.0207,0.017,0.009,0.0012,0.0015,-0.009,-0.0088,-0.009,-0.0088,-0.007,-0.0062,-0.0144,-0.0144,-0.0144,-0.0144,-0.0144,0,0.0227,0.0244,0.0292,0.0307,0.033,0.0345,0.0361,0.036,0.0355,0.0359,0.0301,0.0274,0.0156,0.0086,0.0011,-0.0072,-0.0091,-0.0109,-0.0109,-0.0086,-0.0079,-0.0075,-0.0066,-0.0146,-0.0145,-0.0145,-0.0145,0,0.0216,0.0245,0.028,0.0321,0.0335,0.0352,0.0393,0.0402,0.0397,0.0396,0.0385,0.0316,0.0216,0.0116,-0.0007,-0.0057,-0.0144,-0.0148,-0.0112,-0.0106,-0.0119,-0.0112,-0.0186,-0.0186,-0.0185,-0.0185,-0.0185,0,0.0219,0.0242,0.0295,0.0316,0.0341,0.0373,0.0398,0.0419,0.0429,0.042,0.0414,0.034,0.0282,0.0125,0.0012,-0.0124,-0.0123,-0.0163,-0.0162,-0.0136,-0.0128,-0.0121,-0.0115,-0.0185,-0.0185,-0.0185,-0.0185,0,0.0226,0.0248,0.0276,0.0323,0.0358,0.0403,0.0439,0.045,0.0468,0.0465,0.0441,0.0366,0.0273,0.0135,0.0048,-0.005,-0.0156,-0.0163,-0.0164,-0.0163,-0.0136,-0.0127,-0.0121,-0.0185,-0.0185,-0.0185,-0.0185,0,0.0227,0.0243,0.0286,0.0322,0.0376,0.0427,0.0442,0.0464,0.0483,0.0474,0.0462,0.0373,0.0316,0.0176,0.0079,-0.0011,-0.0036,-0.0065,-0.0071,-0.0073,-0.0026,0.0025,0.0012,0,0,0,0,0,0.0228,0.0248,0.0285,0.0335,0.0394,0.0433,0.0471,0.0479,0.0489,0.0484,0.0482,0.0401,0.0271,0.0202,0.0116,0.0064,-0.0066,-0.0041,-0.0105,-0.0183,-0.0183,-0.0146,0,0,0,0,0,0,0.0227,0.0258,0.028,0.0351,0.0393,0.0463,0.0495,0.0498,0.0488,0.0483,0.041,0.0389,0.025,0.033,0.0121,0.0091,0.004,-0.0103,-0.0104,-0.0183,-0.0183,-0.0183,-0.0145,0,0,0,0,0]}]]